Location: Capelle
(50.3413°N, 1.9974°E)
Time: 21:54:29
(UTC+00:00)

Cosmos 2360 - Pass Details

Date: 12 January 2026
Orbit: 847 x 855 km, 70.7° (Epoch: 7 February)

Event Time Altitude Azimuth Distance (km) Brightness Sun altitude
Rises 19:15:33 0° 329° (NNW) 3,435 7.8 -28.3°
Reaches altitude 10° 19:18:01 10° 328° (NNW) 2,495 7.0 -28.7°
Enters shadow 19:23:39 77° 255° (WSW) 881 4.2 -29.6°
